Погода в Степановке Первой

Украина / Запорожская область     46°28′48″N   35°33′09″E
темп.,
°C
ветер,
м/с
пор.,
м/с
влажн.,
%
обл.,
%
осадки,
мм/ч
давл.,
гПа
погр.,
м
8 августа, пн
пн800:00+26с58400 0.0 1013103
03:00+24с59420 0.0 1013146
06:00+23св59395 0.0 1014146
09:00+30всв68290 0.0 1014524
12:00+31вюв78330 0.0 10141120
15:00+31юв56380 0.0 1014608
18:00+31юв26290 0.0 1013608
21:00+27с44320 0.0 101326
9 августа, вт
вт900:00+26ссв58310 0.0 1014102
03:00+25ссв59340 0.0 1013117
06:00+24св57420 0.0 1014114
09:00+31всв67290 0.0 1014457
12:00+30вюв79410 0.0 1014739
15:00+31вюв69330 0.0 1013796
18:00+32в610280 0.0 1012705
21:00+28в46380 0.0 101152
10 августа, ср
ср1000:00+27св5113463 0.0 1011164
03:00+26всв61239100 0.0 1010200
06:00+25всв61149100 0.0 1011181
09:00+29в9124077 0.0 1011810
12:00+31в10133469 0.0 10101534
15:00+32в8113016 0.0 10091676
18:00+32в71030100 0.0 10081409
21:00+30св51136100 0.0 1007178
11 августа, чт
чт1100:00+27св712405 0.0 1007216
03:00+26св51147100 0.0 1007208
06:00+26всв7135268 0.0 1008333
09:00+28в9125378 0.0 1009772
12:00+29в9114766 0.1 10101003
15:00+29всв7104874 0.8 1010699
18:00+30св473858 0.0 1009623
21:00+26св8164898 0.6 1010343
12 августа, пт
пт1200:00+25ссв9175696 2.8 1010422
03:00+24св10176253 3.6 1010486
06:00+23св7146865 3.8 1010428
09:00+27вюв1114750 4.5 1011713
12:00+27в89560 1.2 1012752
15:00+28в710541 1.4 1011756
18:00+30всв59480 0.1 1010552
21:00+26св48580 4.3 1010122